Tracking 22879 objects as of 21-Apr-2021
HD Live streaming from Space Station
objects crossing your sky now

STARLINK-2279

Track STARLINK-2279 now!
10-day predictions
STARLINK-2279 is classified as:


NORAD ID: 47991
Int'l Code: 2021-024Q
Perigee: 355.9 km
Apogee: 357.6 km
Inclination: 53.0 °
Period: 91.5 minutes
Semi major axis: 6727 km
RCS: Unknown
Launch date: March 24, 2021
Source: United States (US)
Launch site: AIR FORCE EASTERN TEST RANGE (AFETR)
aabbcc
Your satellite tracking list
Your tracking list is empty




NASA's NSSDC Master Catalog

Two Line Element Set (TLE):
1 47991U 21024Q   21110.58335648 -.00051171  00000-0 -36159-3 0  9990
2 47991  53.0489  68.9456 0001248  77.3708  83.7795 15.73247502  1776
Source of the keplerian elements: AFSPC